www.pogodaiklimat.ru

Погода и климат >> Архив погоды >> Россия >> Чукотка >> Омолон


ПОГОДА в Омолоне

АРХИВ ПОГОДЫ в Омолоне

Время (UTC), дата Ветер
(напр.,м/с)
 
Видим.   Явления Облачность Т
(С)
Тd
(С)
f
(%)
Тe
(С)
Тes
(С)
Комфортность P
(гПа)
Po
(гПа)
Тmin
(С)
Tmax
(С)
R
(мм)
R24
(мм)
S
(см)
03 14.05 Ю 5
{10}
50 км 8/4 1000 м
[Cu Sc Ac trans]
+5.7 -4.0 50 +2 +4 1005.6 974.1
06 14.05 Ю 3
{8}
50 км 9/6 1000 м
[Cu Sc Ac trans]
+7.1 -4.0 45 +5 +6 1006.1 974.8
09 14.05 З 3
{9}
50 км 6/4 1000 м
[Sc Ac trans]
+5.8 -7.4 38 +3 +4 1008.3 976.7 +7.5
12 14.05 ЮЗ 2
{6}
50 км 9/6 1000 м
[Sc Ac trans]
+2.9 -6.5 50 +1 +1 1010.8 978.8
15 14.05 ЮЗ 2
{3}
50 км 3/0
[Ac trans]
+0.2 -7.8 55 -3 -3 1012.6 980.4
18 14.05 В 2
{4}
50 км 8/0
[Ac trans Ci fib]
-3.4 -7.7 72 -7 -7 1014.8 982.0
21 14.05 ЮВ 3
{4}
50 км 10/0
[Ac trans Cs]
+2.9 -5.0 56 -1 +2 1015.2 983.1 -3.5 60
00 15.05 ЮВ 3
{7}
50 км 8/0
[Ci fib]
+5.4 -4.4 49 +3 +10 1014.4 982.7
03 15.05 ЮВ 2
{7}
50 км 8/0
[Cc]
+6.0 -4.5 47 +4 +12 1013.5 981.8
06 15.05 В 3
{7}
50 км 8/0
[Ci fib]
+5.4 -3.1 54 +3 +6 1012.7 981.0
09 15.05 ЮВ 3
{5}
50 км 8/0
[Ci fib]
+4.4 -3.2 58 +1 +2 1012.9 981.0 +6.6
12 15.05 ЮВ 3
{6}
50 км 5/0
[Ci fib]
+2.0 -3.1 69 -2 -2 1013.7 981.6
15 15.05 ЮВ 3
{7}
50 км 9/0
[Ci fib]
+1.1 -3.6 71 -3 -3 1013.7 981.5
18 15.05 ЮВ 2
{5}
50 км 8/0
[Ci fib]
-0.9 -4.4 77 -5 -4 1014.6 982.0
21 15.05 В 3
{8}
50 км 10/0
[Ci fib]
+2.7 -3.2 65 -1 +2 1014.2 982.1 -1.0 40
00 16.05 ЮВ 3
{6}
50 км 6/0
[Ci fib]
+5.1 -2.7 57 +2 +10 опасность
простуды
1013.3 981.6
03 16.05 ЮВ 3
{6}
50 км 6/0
[Ci fib]
+6.4 -2.7 52 +4 +11 1012.5 980.9
06 16.05 В 3
{6}
50 км 8/0
[Ci sp]
+6.7 -2.4 52 +4 +7 1011.9 980.4
09 16.05 ЮВ 2
{5}
50 км 8/0
[Ci sp]
+5.0 -2.0 61 +3 +3 1011.8 980.2 +7.5
12 16.05 В 2
{4}
50 км 3/0
[Ci fib]
+0.3 -2.8 80 -3 -3 1012.0 979.8
15 16.05 В 1
{3}
50 км 5/0
[Ci fib]
-2.7 -4.5 87 -5 -5 1012.1 979.5
18 16.05 ЮВ 2
{4}
50 км 10/0
[Ac lent Cs]
+0.4 -3.5 75 -3 -2 1011.7 979.5
21 16.05 В 2
{4}
50 км 8/0
[Ac lent Ci fib]
+4.3 -1.7 65 +2 +5 1011.4 979.6 -3.5 40
00 17.05 ЮВ 3
{7}
50 км 10/0
[Cs]
+7.6 -2.2 50 +5 +12 1011.0 979.6
03 17.05 В 3
{7}
50 км 10/0
[Ac trans Cs]
+9.1 -2.2 45 +7 +13 1010.0 978.8
06 17.05 СВ 2
{5}
50 км 10/0
[Ac trans Cs]
+8.7 -2.0 47 +7 +10 1010.1 978.8
09 17.05 ЮВ 4
{7}
50 км 10/0
[Ac trans Cs]
+7.9 -2.0 50 +5 +5 1010.5 979.1 +8.5
12 17.05 ЮВ 4
{8}
50 км 10/5 1000 м
[Sc Ac trans Cs]
+4.9 -0.8 67 +1 +1 1011.4 979.6
15 17.05 ЮВ 3
{7}
50 км 10/0
[Ac trans Cs]
+3.8 -1.2 70 0 0 1012.0 980.1
18 17.05 В 1
{6}
50 км 10/0
[Ac trans Ci fib]
+3.7 -1.6 68 +3 +3 1012.3 980.4
21 17.05 ЮВ 2
{6}
50 км 10/1 1000 м
[Sc Ac trans Cs]
+5.8 -2.0 57 +4 +6 1012.3 980.6 +3.3 37
00 18.05 В 3
{7}
50 км 10/0
[Ci fib]
+6.1 -1.8 57 +3 +10 1012.2 980.6
03 18.05 ЮВ 4
{6}
50 км 6/0
[Ci fib]
+7.6 -2.1 50 +5 +11 1012.0 980.5
06 18.05 В 3
{8}
50 км 8/0
[Ci fib]
+7.7 -2.6 48 +5 +9 1012.5 981.0
09 18.05 В 2
{5}
50 км 4/0
[Ci fib]
+5.6 -1.8 59 +4 +4 1013.6 981.9 +8.4
12 18.05 ЮВ 2
{5}
50 км 5/0
[Ci fib]
+3.3 -2.9 64 +1 +1 1015.2 983.2
15 18.05 В 2
{5}
50 км 5/0
[Ci fib]
+1.3 -3.8 69 -2 -2 1016.2 983.9
18 18.05 В 1
{3}
50 км 8/0
[Ci fib]
-1.4 -4.3 81 -3 -3 1017.0 984.3
21 18.05 В 2
{3}
50 км 8/0
[Ci fib]
+5.5 -3.3 53 +4 +8 1016.4 984.6 -1.9 31
00 19.05 В 3
{5}
50 км 3/0
[Ci fib]
+8.3 -4.5 40 +6 +15 опасность
простуды
1015.6 984.1
03 19.05 В 3
{5}
50 км 4/0
[Ci fib]
+8.9 -3.7 41 +7 +15 1015.0 983.5
06 19.05 В 2
{5}
50 км 4/0
[Ci fib]
+9.4 -3.2 41 +8 +13 1014.3 983.0
09 19.05 В 1
{3}
50 км 5/0
[Ci fib]
+7.1 -2.6 50 +7 +7 1014.5 983.0 +9.6
12 19.05 штиль 0
{3}
50 км 3/0
[Ci fib]
+0.2 -3.3 77 -1 -1 1015.6 983.3
15 19.05 ЮВ 1
{4}
50 км ясно -3.0 -4.8 87 -5 -5 1016.0 983.2
18 19.05 штиль 0
{3}
50 км ясно -1.3 -4.6 78 -2 -1 1016.4 983.7
21 19.05 В 1
{2}
50 км 5/0
[Ci fib]
+3.9 -3.4 59 +3 +9 1015.6 983.5 -3.5 27
00 20.05 В 2
{4}
50 км 5/0
[Ci fib]
+8.1 -3.4 44 +7 +16 опасность
простуды
1014.2 972.7
03 20.05 В 2
{4}
50 км 3/0
[Ci fib]
+9.5 -3.5 40 +9 +18 1012.8 981.5
06 20.05 В 2
{3}
50 км 4/0
[Ci fib]
+10.6 -3.1 38 +10 +14 1011.2 980.1
09 20.05 З 4
{6}
50 км 8/3 1000 м
[Sc Ac trans Ci fib]
+8.0 -2.1 49 +5 +5 1011.3 980.0 +10.9
12 20.05 Ю 1
{6}
50 км 10/4 1000 м
[Sc Ac trans Ci fib]
+3.0 -0.8 76 +2 +2 1012.9 980.9
15 20.05 ЮЗ 1
{4}
22 км слабый дождь 10/5 1000 м
[Sc As op]
+2.8 +0.2 83 +1 +1 1012.4 980.4
18 20.05 В 2
{3}
50 км {дождь} 10/6 1000 м
[Sc Ac As]
+2.1 +0.3 88 -1 -1 1011.4 979.4
21 20.05 В 2
{4}
50 км 10/4 1000 м
[Sc Ac trans Ci fib]
+3.8 +0.6 80 +1 +3 1010.3 978.4 +1.2 0.9
00 21.05 ЮВ 2
{5}
50 км 10/0
[Ac trans Ci fib]
+6.5 -0.9 59 +5 +10 1009.0 977.5

 

Местоположение метеостанции Омолон (Чукотка, Россия): широта 65.23 долгота 160.50 высота над уровнем моря 260 м.

В архиве по умолчанию представлена погода в Омолоне за последнюю неделю. Архивные данные за месяц целиком и за предыдущие месяцы, начиная с января 2011 года, Вы можете получить, выбрав интересующий диапазон дат из раскрывающегося списка и нажав кнопку "Ввод!".


*Определитесь, кто Вы:
робот инопланетянин человек

Внимание! Время в таблицах - всемирное. Для получения местного времени необходимо прибавить поправку, которая в Омолоне равна 12 ч.

Смотрите также архив погоды в соседних городах и на ближайших метеорологических станциях:

Погода в Кегали (Магаданская область, Россия) (112 км)
Погода в Верхне-Пенжино (Камчатский край, Россия) (209 км)
Погода в Баимке (Чукотка, Россия) (222 км)
Погода в Лабазной (Магаданская область, Россия) (235 км)
Погода в Коркодоне (Магаданская область, Россия) (315 км)
Погода в Константиновской (Чукотка, Россия) (326 км)
Погода в Балыгычане (Магаданская область, Россия) (339 км)
Погода в Анюйске (Чукотка, Россия) (350 км)
Погода на Островном (Чукотка, Россия) (358 км)
Погода в Эвенске (Магаданская область, Россия) (374 км)

Пояснения к столбцам:

Ветер - указаны скорость ветра в м/с - средняя за 10 мин, порывы в срок и между сроками (в фигурных скобках) и направление, откуда дует ветер: С - северный, СВ - северо-восточный, В - восточный, ЮВ - юго-восточный, Ю - южный, ЮЗ - юго-западный, З - западный, СЗ - северо-западный.
Видимость - горизонтальная дальность видимости в метрах или километрах. При видимости от 1 до 10 км при отсутствии осадков обычно наблюдается дымка, при ухудшении видимости до 1 км и менее - туман. В сухую погоду видимость может ухудшаться дымом, пылью или мглою.
Явления - указаны атмосферные явления, наблюдавшиеся в срок или в последний час перед сроком; фигурными скобками обозначены явления, наблюдавшиеся между сроками (за 1-3 часа до срока); квадратными скобками обозначены град или гололедные отложения с указанием их диаметра в мм.
Облачность - указаны через наклонную черту общая и нижняя облачность в баллах и высота нижней границы облаков в метрах; квадратными скобками обозначены формы облаков: Ci - перистые, Cs - перисто-слоистые, Cc - перисто-кучевые, Ac - высококучевые, As - высокослоистые, Sc - слоисто-кучевые, Ns - слоисто-дождевые, Cu - кучевые, Cb - кучево-дождевые. Подробнее классификацию облаков см. в Атласе облаков (PDF).
T - Температура воздуха - температура, измеренная на высоте 2 м над землей.
Td - Температура точки росы - температура, при понижении до которой содержащийся в воздухе водяной пар достигнет насыщения.
f - Относительная влажность воздуха - влажноcть воздуха, измеренная на высоте 2 м над землей.
Te - Эффективная температура - температура, которую ощущает одетый по сезону человек в тени. Характеристика душности погоды. При расчете учитывается влияние влажности воздуха и скорости ветра на теплоощущения человека.
Tes - Эффективная температура на солнце - температура, которую ощущает человек, с поправкой на солнечный нагрев. Характеристика знойности погоды. Зависит от высоты солнца над горизонтом, облачности и скорости ветра. Ночью, в пасмурную погоду, а также при ветре 12 м/с и более поправка равна нулю.
P - Атмосферное давление - приведенное к уровню моря атмосферное давление.
Po - Атмосферное давление - измеренное на уровне метеостанции атмосферное давление.
Tmin - Минимальная температура - минимум температуры воздуха на высоте 2 м над землей.
Tmax - Максимальная температура - максимум температуры воздуха на высоте 2 м над землей.
R - Количество осадков - Количество выпавших осадков за период времени, мм. При наведении курсора мыши на число - период времени, за который выпало указанное количество осадков.
R24 - Количество осадков - Количество выпавших осадков за 24 часа, мм.
S - Снежный покров - Высота снежного покрова, см. При наведении курсора мыши на число - состояние снежного покрова и степень покрытия местности в баллах.